CW2404 Weather Reports


time (UTC)temp
F
wind
direction
speed
knots
gust
knots
rain 1hr
in
rain 24hr
in
rain mn
in
humidity
%
barometer
mb
20260507101007 49 325 11.3 0.0 0.00 0.00 0.11 78 1004.2
20260507100445 49 308 13.0 0.0 0.00 0.00 0.11 78 1004.2
20260507095936 49 318 14.8 0.0 0.00 0.00 0.11 79 1004.2
20260507095523 49 327 15.6 0.0 0.00 0.00 0.11 78 1004.2
20260507095001 49 325 13.0 0.0 0.00 0.00 0.11 79 1004.2
20260507094451 49 332 12.2 0.0 0.00 0.00 0.11 79 1004.2
20260507094048 49 302 11.3 0.0 0.00 0.00 0.11 80 1004.0
20260507093522 49 303 7.8 0.0 0.00 0.00 0.11 81 1004.0
20260507092933 50 299 8.7 0.0 0.00 0.00 0.11 83 1004.1
20260507092511 50 263 10.4 0.0 0.00 0.00 0.11 83 1003.5
20260507092012 50 322 11.3 0.0 0.00 0.00 0.11 82 1003.5
20260507091453 50 277 12.2 0.0 0.00 0.00 0.10 84 1003.5
20260507090944 50 294 11.3 0.0 0.00 0.00 0.10 85 1003.6
20260507090527 50 309 6.1 0.0 0.00 0.00 0.09 85 1003.6
20260507090014 50 318 0.0 0.0 0.00 0.00 0.09 88 1003.6
20260507085503 50 105 0.0 0.0 0.00 0.00 0.09 89 1003.9
20260507085020 51 105 0.0 0.0 0.00 0.00 0.08 89 1003.9
20260507084457 51 105 0.0 0.0 0.00 0.00 0.07 90 1003.9
20260507083937 51 105 0.0 0.0 0.00 0.00 0.07 90 1003.5
20260507083522 51 105 0.0 0.0 0.00 0.00 0.06 90 1003.5
20260507083000 51 105 0.0 0.0 0.00 0.00 0.05 89 1003.5
20260507082444 51 105 0.0 0.0 0.00 0.00 0.04 89 1003.9
20260507082025 51 105 0.0 0.0 0.00 0.00 0.04 89 1003.9
20260507081453 51 105 0.0 0.0 0.00 0.00 0.03 88 1003.9
20260507081029 51 105 0.0 0.0 0.00 0.00 0.03 88 1003.5
20260507080453 51 105 0.0 0.0 0.00 0.00 0.03 87 1003.5
20260507075930 51 105 0.0 0.0 0.00 0.00 0.02 87 1003.5
20260507075507 51 105 0.0 0.0 0.00 0.00 0.01 86 1003.3
20260507074934 52 105 0.0 0.0 0.00 0.00 0.00 84 1003.3
20260507074529 52 105 0.0 0.0 0.00 0.00 0.00 83 1003.3
20260507074010 52 105 0.0 0.0 0.00 0.00 0.00 86 1002.9
20260507073450 52 105 0.0 0.0 0.00 0.00 0.00 86 1002.9
20260507073021 52 105 0.0 0.0 0.00 0.00 0.00 86 1002.9
20260507072017 53 105 0.0 0.0 0.00 0.00 0.00 86 1002.6
20260507071438 53 105 0.0 0.0 0.00 0.00 0.00 88 1002.6
20260507071006 53 105 0.0 0.0 0.00 0.00 0.00 87 1002.6
20260507070528 53 105 0.0 0.0 0.00 0.00 0.00 87 1002.6
20260507065958 54 105 0.0 0.0 0.00 0.00 0.00 87 1002.6
20260507065527 54 105 0.0 0.0 0.00 0.00 0.00 86 1002.9
20260507065027 54 105 0.0 0.0 0.00 0.00 0.00 86 1002.9
20260507064452 53 105 0.0 0.0 0.00 0.00 0.00 87 1002.9
20260507064048 53 105 0.0 0.0 0.00 0.00 0.00 87 1002.5
20260507062958 54 105 0.9 0.0 0.00 0.00 0.00 87 1002.5
20260507062444 54 105 4.3 0.0 0.00 0.00 0.00 87 1002.7
20260507061932 55 303 6.1 0.0 0.00 0.00 0.00 84 1002.7
20260507061516 55 298 3.5 0.0 0.00 0.00 0.00 86 1002.7
20260507061026 55 303 1.7 0.0 0.00 0.00 0.00 85 1002.9
20260507060436 55 105 0.0 0.0 0.00 0.00 0.00 89 1002.9
20260507055949 55 105 0.0 0.0 0.00 0.00 0.00 89 1002.9
20260507055432 55 105 0.0 0.0 0.00 0.00 0.00 89 1003.0
20260507054938 55 105 0.0 0.0 0.00 0.00 0.00 91 1003.0
20260507054441 55 105 0.0 0.0 0.00 0.00 0.00 88 1003.0
20260507053949 56 105 0.0 0.0 0.00 0.00 0.00 89 1003.0
20260507053436 57 105 0.0 0.0 0.00 0.00 0.00 90 1003.0
20260507052946 58 105 0.0 0.0 0.00 0.00 0.00 91 1003.0
20260507052436 58 105 0.0 0.0 0.00 0.00 0.00 93 1003.0
20260507051949 57 105 0.0 0.0 0.00 0.00 0.00 93 1003.0
20260507051433 57 105 0.0 0.0 0.00 0.00 0.00 93 1003.0
20260507050945 58 105 0.0 0.0 0.00 0.00 0.00 93 1003.0
20260507050434 58 105 0.0 0.0 0.00 0.00 0.00 94 1003.0
20260507045940 57 105 0.0 0.0 0.00 0.00 0.00 94 1003.0
20260507045450 56 105 0.0 0.0 0.00 0.00 0.00 94 1003.0
20260507044937 56 105 0.0 0.0 0.00 0.00 0.00 93 1003.0
20260507044442 56 105 0.0 0.0 0.00 0.00 0.00 92 1003.0
20260507043946 57 105 0.0 0.0 0.00 0.00 0.00 92 1002.6
20260507043438 57 105 0.0 0.0 0.00 0.00 0.00 93 1002.6
20260507042932 57 105 0.0 0.0 0.00 0.00 0.00 93 1002.6
20260507042439 57 105 0.0 0.0 0.00 0.00 0.00 93 1003.0
20260507041942 57 105 0.0 0.0 0.00 0.00 0.00 93 1003.0
20260507041448 57 105 0.0 0.0 0.00 0.00 0.00 93 1003.0
20260507040933 57 105 0.0 0.0 0.00 0.00 0.00 93 1003.1
20260507040444 57 105 0.0 0.0 0.00 0.00 0.00 93 1003.1
20260507040052 57 105 0.0 0.0 0.00 0.00 0.00 93 1003.1
20260507035515 57 105 0.0 0.0 0.00 0.00 0.02 93 1003.0
20260507034949 57 105 0.0 0.0 0.00 0.00 0.02 92 1003.0
20260507034439 57 105 5.2 0.0 0.00 0.00 0.02 92 1003.0
20260507034023 57 105 11.3 0.0 0.00 0.00 0.02 92 1003.0
20260507033456 56 227 13.9 0.0 0.00 0.00 0.02 90 1003.0
20260507033038 56 237 14.8 0.0 0.00 0.00 0.02 90 1003.0
20260507032452 56 221 13.9 0.0 0.00 0.00 0.02 90 1002.8
20260507032027 56 220 13.9 0.0 0.00 0.00 0.02 90 1002.8
20260507031453 56 234 7.0 0.0 0.00 0.00 0.02 89 1002.8
20260507030946 56 105 0.0 0.0 0.00 0.00 0.02 92 1002.5
20260507030517 57 105 0.0 0.0 0.00 0.00 0.02 92 1002.5
20260507030000 56 105 0.0 0.0 0.00 0.00 0.02 92 1002.5
20260507025514 56 105 0.0 0.0 0.00 0.00 0.02 92 1002.7
20260507024947 56 105 0.0 0.0 0.00 0.00 0.02 92 1002.7
20260507024518 56 105 0.0 0.0 0.00 0.00 0.02 92 1002.7
20260507024006 56 105 0.0 0.0 0.00 0.00 0.02 92 1002.5
20260507023522 56 105 0.0 0.0 0.00 0.00 0.02 93 1002.5
20260507022950 56 105 0.0 0.0 0.00 0.00 0.02 93 1002.5
20260507022026 56 105 0.0 0.0 0.00 0.00 0.02 93 1002.6
20260507021445 56 105 0.0 0.0 0.00 0.00 0.02 93 1002.6
20260507021018 56 105 0.0 0.0 0.00 0.00 0.02 93 1002.7
20260507020445 56 105 0.0 0.0 0.00 0.00 0.02 92 1002.7
20260507015946 56 105 6.1 0.0 0.00 0.00 0.02 92 1002.7
20260507015506 56 105 12.2 0.0 0.00 0.00 0.02 90 1003.0
20260507014938 56 225 14.8 0.0 0.00 0.00 0.02 89 1003.0
20260507014520 56 230 15.6 0.0 0.00 0.00 0.02 89 1003.0
20260507013955 56 228 17.4 0.0 0.00 0.00 0.02 89 1003.0
20260507013529 56 225 17.4 0.0 0.00 0.00 0.02 89 1003.0
20260507012949 56 223 18.2 0.0 0.00 0.00 0.02 89 1003.0
20260507012515 56 219 19.1 0.0 0.00 0.00 0.02 89 1003.2
20260507011950 56 224 20.0 0.0 0.00 0.00 0.02 89 1003.2
20260507011525 56 210 20.0 0.0 0.00 0.00 0.02 89 1003.2
20260507010955 56 211 19.1 0.0 0.00 0.00 0.02 89 1003.1
20260507010521 56 224 18.2 0.0 0.00 0.00 0.02 88 1003.1
20260507005514 56 232 3.5 0.0 0.00 0.00 0.02 88 1003.1
20260507004954 56 105 0.0 0.0 0.00 0.00 0.02 91 1003.1
20260507004513 56 105 5.2 0.0 0.00 0.00 0.02 91 1003.1
20260507003449 56 217 14.8 0.0 0.00 0.00 0.02 85 1003.1
20260507003049 56 227 13.9 0.0 0.00 0.00 0.02 85 1003.1
20260507002521 56 210 13.9 0.0 0.00 0.00 0.02 85 1003.1
20260507001956 56 216 13.9 0.0 0.00 0.00 0.02 85 1003.1
20260507001433 56 190 14.8 0.0 0.00 0.00 0.02 84 1003.1
20260507001030 56 231 14.8 0.0 0.00 0.00 0.02 85 1002.9
20260507000444 56 211 15.6 0.0 0.00 0.00 0.02 84 1002.9
20260507000003 56 229 14.8 0.0 0.00 0.00 0.02 84 1002.9
20260506235432 56 226 15.6 0.0 0.00 0.00 0.02 84 1002.7
20260506235010 56 234 17.4 0.0 0.00 0.00 0.02 84 1002.7
20260506234459 56 224 18.2 0.0 0.00 0.00 0.02 84 1002.7
20260506233952 56 264 18.2 0.0 0.00 0.00 0.02 84 1002.7
20260506233522 56 227 18.2 0.0 0.00 0.00 0.02 84 1002.7
20260506232954 56 223 18.2 0.0 0.00 0.00 0.02 84 1002.7
20260506232548 56 0.0 0.0 0.00 0.00 0.02 84 1003.0
20260506232011 56 228 16.5 0.0 0.00 0.00 0.02 84 1003.0
20260506231448 56 221 15.6 0.0 0.00 0.00 0.02 84 1003.0
20260506230951 56 184 15.6 0.0 0.00 0.00 0.02 84 1003.1
20260506230450 56 211 15.6 0.0 0.00 0.00 0.02 84 1003.1
20260506230017 56 225 14.8 0.0 0.00 0.00 0.02 85 1003.1
20260506225503 56 228 14.8 0.0 0.00 0.00 0.02 84 1003.2
20260506224941 56 202 16.5 0.0 0.00 0.00 0.02 85 1003.2
20260506224510 56 199 16.5 0.0 0.00 0.00 0.02 85 1003.2
20260506223951 56 204 15.6 0.0 0.00 0.00 0.02 85 1003.5
20260506223434 56 190 15.6 0.0 0.00 0.00 0.02 84 1003.5
20260506223020 56 219 15.6 0.0 0.00 0.00 0.02 84 1003.5
20260506222457 57 222 15.6 0.0 0.00 0.00 0.02 84 1003.6
20260506221938 57 245 14.8 0.0 0.00 0.00 0.02 84 1003.6
20260506221504 57 218 14.8 0.0 0.00 0.00 0.02 84 1003.6
20260506220940 57 213 12.2 0.0 0.00 0.00 0.02 84 1003.7
20260506220517 57 198 2.6 0.0 0.00 0.00 0.02 89 1003.7
20260506220002 58 104 0.0 0.0 0.00 0.00 0.02 89 1003.7
20260506215534 58 105 0.0 0.0 0.00 0.00 0.02 88 1003.7
20260506214935 58 105 12.2 0.0 0.00 0.00 0.02 88 1003.7
20260506214503 58 221 18.2 0.0 0.00 0.00 0.02 85 1003.7
20260506214012 57 212 17.4 0.0 0.00 0.00 0.02 86 1003.8
20260506213458 57 208 17.4 0.0 0.00 0.00 0.02 86 1003.8
20260506212946 57 205 16.5 0.0 0.00 0.00 0.01 86 1003.8
20260506145524 64 192 18.2 0.0 0.00 0.00 0.00 68 1006.3
20260506144450 64 208 16.5 0.0 0.00 0.00 0.00 68 1006.3
20260506143944 64 197 16.5 0.0 0.00 0.00 0.00 68 1006.4
20260506143527 64 206 17.4 0.0 0.00 0.00 0.00 69 1006.4
20260506142958 64 246 17.4 0.0 0.00 0.00 0.00 70 1006.4
20260506142449 64 229 13.0 0.0 0.00 0.00 0.00 70 1006.4
20260506142038 64 223 5.2 0.0 0.00 0.00 0.00 69 1006.4
20260506140957 62 105 0.0 0.0 0.00 0.00 0.00 77 1006.4
20260506140538 62 104 0.0 0.0 0.00 0.00 0.00 77 1006.4
20260506135948 63 105 0.0 0.0 0.00 0.00 0.00 77 1006.4
20260506135511 62 104 0.0 0.0 0.00 0.00 0.00 78 1007.0
20260506134020 60 196 17.4 0.0 0.00 0.00 0.00 77 1007.1
20260506133509 60 210 17.4 0.0 0.00 0.00 0.00 77 1007.1
20260506132942 60 193 13.9 0.0 0.00 0.00 0.00 78 1007.1
20260506132435 59 213 5.2 0.0 0.00 0.00 0.00 78 1007.0
20260506131454 60 104 0.0 0.0 0.00 0.00 0.00 82 1007.0
20260506131041 60 104 0.0 0.0 0.00 0.00 0.00 82 1007.1
20260506130517 60 103 0.0 0.0 0.00 0.00 0.00 82 1007.1
20260506125506 59 105 5.2 0.0 0.00 0.00 0.00 83 1007.2
20260506124948 59 104 15.6 0.0 0.00 0.00 0.00 78 1007.2
20260506124524 59 224 16.5 0.0 0.00 0.00 0.00 78 1007.2
20260506124028 59 232 17.4 0.0 0.00 0.00 0.00 78 1006.7
20260506123016 59 105 15.6 0.0 0.00 0.00 0.00 78 1006.7
20260506122002 58 223 17.4 0.0 0.00 0.00 0.00 79 1007.1
20260506121510 58 190 17.4 0.0 0.00 0.00 0.00 79 1007.1
20260506120951 58 211 16.5 0.0 0.00 0.00 0.00 79 1007.3
20260506120437 58 213 15.6 0.0 0.00 0.00 0.00 79 1007.3
20260506120024 58 280 15.6 0.0 0.00 0.00 0.00 80 1007.3
20260506115502 57 213 14.8 0.0 0.00 0.00 0.00 80 1007.6
20260506114942 57 218 16.5 0.0 0.00 0.00 0.00 80 1007.6
20260506114435 57 196 17.4 0.0 0.00 0.00 0.00 80 1007.6
20260506114017 57 206 15.6 0.0 0.00 0.00 0.00 80 1007.3
20260506113516 57 188 6.1 0.0 0.00 0.00 0.00 80 1007.3
20260506113004 57 105 0.0 0.0 0.00 0.00 0.00 87 1007.3
20260506112550 57 105 0.0 0.0 0.00 0.00 0.00 87 1007.2
20260506112005 57 104 0.0 0.0 0.00 0.00 0.00 87 1007.2
20260506111546 57 105 0.0 0.0 0.00 0.00 0.00 87 1007.2
20260506111006 57 105 0.0 0.0 0.00 0.00 0.00 87 1007.3
20260506110528 57 105 0.0 0.0 0.00 0.00 0.00 87 1007.3
20260506110003 57 105 0.0 0.0 0.00 0.00 0.00 87 1007.3
20260506105442 57 104 0.0 0.0 0.00 0.00 0.00 87 1007.6
20260506105024 57 105 0.0 0.0 0.00 0.00 0.00 87 1007.6
20260506104503 57 105 0.0 0.0 0.00 0.00 0.00 87 1007.6
20260506103945 57 105 0.0 0.0 0.00 0.00 0.00 87 1007.5
20260506103526 57 105 0.0 0.0 0.00 0.00 0.00 87 1007.5
20260506103008 57 105 0.0 0.0 0.00 0.00 0.00 87 1007.5
20260506102454 57 104 0.0 0.0 0.00 0.00 0.00 87 1007.2
20260506101948 57 105 0.0 0.0 0.00 0.00 0.00 87 1007.2